Location: Baia Mare
(47.6567°N, 23.5850°E)
Time: 14:01:19
(UTC+02:00)

ISS - Pass Details

Date: 01 December 2018
Orbit: 401 x 408 km, 51.6° (Epoch: 16 December)

Event Time Altitude Azimuth Distance (km) Brightness Sun altitude
Rises 18:15:14 0° 265° (W) 2,314 1.7 -16.1°
Reaches altitude 10° 18:17:22 10° 272° (W) 1,455 0.2 -16.4°
Maximum altitude 18:20:32 47° 348° (NNW) 542 -3.3 -16.9°
Enters shadow 18:21:13 39° 28° (NNE) 618 -3.3 -17.0°
